Lid_Strength_Index
9 12 12 11 11 11 12 13 14 13 11 10 11 11 10 8 8 8 7 7 6 5 4 2 1 1 1 1 1 1 1 0 1 1 2 2 2 1 1 0 -0 -0 -0 -0
12 13 11 12 12 13 13 14 14 12 10 11 12 12 10 9 8 8 7 7 6 5 5 4 3 2 1 1 1 1 1 1 1 1 1 1 1 1 1 0 0 -0 -0 -0
14 12 12 12 13 14 13 14 13 13 12 10 11 12 11 9 8 7 7 6 6 5 5 4 4 3 2 2 1 1 1 1 1 1 1 1 1 1 1 1 1 0 -0 -0
13 11 13 13 13 12 15 10 11 11 12 14 9 15 11 8 7 6 6 5 5 5 4 3 3 2 2 1 1 1 1 1 1 1 1 2 3 3 2 2 1 1 0 0
14 13 13 13 13 11 13 10 10 10 11 12 12 14 11 9 11 9 8 6 5 5 5 4 4 3 2 1 1 1 1 1 1 0 1 2 2 2 1 1 1 1 1 0
12 10 11 11 10 9 8 8 8 9 10 17 13 14 16 13 12 11 9 9 8 7 6 5 5 4 6 4 2 1 1 1 1 1 1 2 2 2 2 2 2 2 1 1
13 11 10 9 10 7 7 11 17 16 17 18 10 12 15 12 11 10 11 11 10 9 8 8 8 7 7 7 5 2 2 2 1 1 1 1 2 2 2 2 2 2 2 1
16 16 10 7 8 11 11 11 17 21 19 16 12 18 15 11 10 10 10 10 11 10 9 9 9 11 8 8 7 6 5 5 4 2 1 1 1 2 2 1 1 1 1 1
16 14 8 6 6 8 11 13 9 16 14 17 16 14 11 10 11 10 11 10 11 11 10 10 10 11 10 9 8 8 8 8 7 5 2 2 1 1 2 1 1 1 1 1
11 14 9 7 7 7 9 8 15 13 20 21 17 16 16 13 12 11 11 11 11 11 11 10 9 11 11 11 10 9 9 9 9 8 7 7 5 3 1 1 1 1 1 1
10 12 11 9 10 12 12 13 12 14 15 19 19 17 11 12 11 11 11 11 11 11 11 12 10 10 10 11 11 11 10 10 10 10 9 9 9 8 7 8 7 2 1 1
7 11 14 12 7 7 9 13 13 16 18 15 15 17 10 11 10 10 10 10 10 9 9 10 10 10 11 12 11 12 11 11 10 10 10 10 10 10 10 9 8 8 7 6
8 11 14 12 10 8 12 11 11 12 13 16 17 16 9 9 10 9 10 9 9 9 9 9 9 10 12 11 12 12 11 12 11 11 11 11 11 11 11 11 11 9 9 9
6 11 13 15 13 11 14 12 11 12 16 15 15 14 12 11 10 10 10 9 10 10 10 9 10 10 10 12 11 13 12 12 11 12 12 12 12 12 12 12 12 12 11 10
7 12 9 9 9 10 11 12 13 14 13 15 14 14 12 10 10 10 10 10 10 11 11 10 10 10 10 10 12 13 13 13 13 13 13 12 12 12 13 13 13 13 13 12
6 10 9 11 9 9 11 11 11 12 13 13 13 13 9 8 8 9 9 9 9 10 10 10 9 9 10 11 10 11 11 12 12 12 13 14 13 13 14 14 14 14 13 13
8 9 10 13 10 10 14 12 11 11 11 12 15 12 9 9 8 8 9 8 8 8 8 8 8 9 9 10 10 10 11 12 12 12 12 12 14 14 13 14 14 15 16 14
9 9 10 12 11 19 12 8 8 10 10 9 10 10 10 9 7 7 7 7 7 7 6 6 7 7 7 8 9 9 10 10 11 12 13 12 12 12 12 12 14 14 14 16
6 8 12 13 13 12 10 9 11 11 10 8 9 9 8 7 6 7 6 6 6 6 6 6 5 6 6 7 8 9 10 10 11 11 12 12 12 13 13 14 13 14 14 14
7 7 10 12 14 16 10 7 6 7 14 7 7 8 8 7 10 8 6 5 5 5 5 5 5 5 6 7 7 8 9 10 11 11 11 10 12 12 13 13 13 13 12 13
10 9 11 12 14 11 7 6 5 14 12 5 5 6 7 8 7 6 5 5 5 5 5 4 5 5 5 5 6 7 8 9 9 9 9 10 10 11 11 12 12 13 13 13
12 12 11 11 13 16 5 6 9 7 5 4 5 5 6 6 6 6 5 5 5 5 5 4 5 5 4 5 6 7 8 7 7 8 8 9 10 10 11 11 11 12 12 13
11 8 10 10 10 5 5 5 4 4 4 4 4 4 5 6 6 5 5 5 5 4 4 4 5 5 4 4 5 6 7 6 7 7 8 9 9 9 9 10 11 12 11 12
8 7 9 9 7 6 5 4 4 4 4 4 4 4 4 5 5 5 4 4 4 4 4 4 4 5 5 5 5 5 5 6 6 7 8 8 9 10 10 9 9 10 11 12
8 7 8 8 7 6 5 4 4 4 4 4 4 4 4 4 4 4 4 4 4 3 4 4 4 5 5 5 5 4 5 5 6 6 7 8 9 10 10 10 10 10 10 11
7 8 9 10 6 6 5 4 4 4 4 4 4 4 4 4 4 4 4 4 4 4 4 4 5 5 6 5 5 5 5 5 6 6 6 7 8 9 10 10 10 10 11 11